Regional Weather Roundup
Issued by NWS

Home | Current Version | Previous Version | Text Only | Print | Product List | Glossary Off
Versions: 1 2 3 4 5 6 7 8 9 10 11 12 13 14 15 16 17 18 19 20 21 22 23 24 25 26 27 28 29 30 31 32 33 34 35 36 37 38 39 40 41 42 43 44 45 46 47 48 49 50

000
ASUS43 KLMK 272002
RWRKY
KENTUCKY REGIONAL WEATHER ROUNDUP
NATIONAL WEATHER SERVICE LOUISVILLE KY
400 PM EDT TUE SEP 27 2016

NOTE "FAIR" INDICATES FEW OR NO CLOUDS BELOW 12,000 FEET
WITH NO SIGNIFICANT WEATHER AND/OR OBSTRUCTIONS TO VISIBILITY.

KYZ001>023-026-027-061>063-070>075-272100-
WESTERN AND SOUTH CENTRAL KENTUCKY

CITY           SKY/WX    TMP DP  RH WIND       PRES   REMARKS
PADUCAH        SUNNY     79  43  27 W10       29.95F
HENDERSON      SUNNY     81  45  28 SW12G22   29.91F
OWENSBORO      SUNNY    N/A N/A N/A W9G17     29.92F
HOPKINSVILLE   SUNNY     75  44  32 VRB5      29.95F
BOWLING GREEN  SUNNY     76  41  28 VRB5      29.95F
GLASGOW        NOT AVBL
$$

KYZ024-025-028>034-038-045-046-053-272100-
NORTH CENTRAL KENTUCKY

CITY           SKY/WX    TMP DP  RH WIND       PRES   REMARKS
LOUISVILLE/SDF MOSUNNY   78  42  27 SW12G18   29.91F
LOUISVILLE/LOU SUNNY     76  42  29 W8        29.92F
FORT KNOX      SUNNY     75  44  32 SW10      29.91F
$$

KYZ035>037-039>044-047>052-055>060-089>105-272100-
NORTHEAST KENTUCKY

CITY           SKY/WX    TMP DP  RH WIND       PRES   REMARKS
LEXINGTON      SUNNY     75  34  22 W13       29.93F
COVINGTON      MOSUNNY   74  45  35 SW9G20    29.88F
FRANKFORT      SUNNY     75  40  28 W10       29.92F
$$

KYZ054-064>069-076>088-106>120-272100-
SOUTHEAST KENTUCKY

CITY           SKY/WX    TMP DP  RH WIND       PRES   REMARKS
JACKSON        SUNNY     74  42  31 VRB3      29.95F
LONDON         SUNNY     74  34  23 NW6       29.95F
SOMERSET       SUNNY     72  41  33 SW6       29.96F
MIDDLESBORO    SUNNY     78  42  28 N6        29.94F
MONTICELLO     CLEAR     74  39  28 VRB5      29.97F
$$





USA.gov is the U.S. government's official web portal to all federal, state and local government web resources and services.